Location: Krasnoyarskiy Pitomnik
(51.1333°N, 71.6167°E)
Time: 19:52:05
(UTC+00:00)

Vanguard 2 - Pass Details

Date: 30 April 2024
Orbit: 553 x 2914 km, 32.9° (Epoch: 22 May)

Event Time Altitude Azimuth Distance (km) Brightness Sun altitude
Exits shadow 17:33:27 17° 120° (ESE) 4,254 10.8 -20.5°
Drops below altitude 10° 17:37:31 10° 106° (ESE) 5,075 11.3 -20.7°
Sets 17:43:32 0° 93° (E) 6,427 12.0 -21.1°
